This is the latest recevied weather packets stored in our database for station/object IZ5MMH-1. If no packets are shown the sender has not sent any weather packets the latest 10 day(s).
| Time | Temp. | Humidity | Pressure | Rain* | Wind** | Luminosity | Snow |
|---|---|---|---|---|---|---|---|
| 1787596102 | 27.78° C | 53% | 1015.2 hPa | - | - | - | - |
| 1787595503 | 27.78° C | 49% | 1015.2 hPa | - | - | - | - |
| 1787594902 | 28.33° C | 49% | 1015.3 hPa | - | - | - | - |
| 1787594302 | 28.89° C | 49% | 1015.3 hPa | - | - | - | - |
| 1787593701 | 28.89° C | 48% | 1015.3 hPa | - | - | - | - |
| 1787593103 | 29.44° C | 46% | 1015.5 hPa | - | - | - | - |
| 1787592503 | 29.44° C | 46% | 1015.4 hPa | - | - | - | - |
| 1787591901 | 30° C | 46% | 1015.3 hPa | - | - | - | - |
| 1787591302 | 30° C | 45% | 1015.2 hPa | - | - | - | - |
| 1787590702 | 30.56° C | 42% | 1015.2 hPa | - | - | - | - |
| 1787590102 | 31.11° C | 41% | 1015.3 hPa | - | - | - | - |
| 1787589501 | 31.67° C | 40% | 1015.1 hPa | - | - | - | - |
| 1787588901 | 32.22° C | 38% | 1015.1 hPa | - | - | - | - |
| 1787588301 | 32.22° C | 37% | 1015.1 hPa | - | - | - | - |
| 1787587702 | 33.33° C | 35% | 1015 hPa | - | - | - | - |
| 1787587101 | 34.44° C | 31% | 1015.1 hPa | - | - | - | - |
| 1787586501 | 34.44° C | 29% | 1015.1 hPa | - | - | - | - |
| 1787585901 | 35° C | 26% | 1015.2 hPa | - | - | - | - |
| 1787585302 | 35° C | 25% | 1015.1 hPa | - | - | - | - |
| 1787584702 | 35° C | 25% | 1015.2 hPa | - | - | - | - |
| 1787584102 | 35.56° C | 23% | 1015.1 hPa | - | - | - | - |
| 1787583501 | 35.56° C | 22% | 1015.2 hPa | - | - | - | - |
| 1787582901 | 35.56° C | 22% | 1015.3 hPa | - | - | - | - |
| 1787582301 | 35.56° C | 21% | 1015.4 hPa | - | - | - | - |
| 1787581701 | 35.56° C | 22% | 1015.5 hPa | - | - | - | - |
* Rain since midnight (hover to see other rain measurements)
** Current wind speed in m/s (hover to see current wind gust speed)